Location: River House Observatory
(37.8577°N, 76.3548°W)
Time: 20:43:29
(UTC-05:00)

Tiangong 1 - Visible Passes

Search period start: 24 November 2017 00:00
Search period end: 04 December 2017 00:00
Orbit: 283 x 307 km, 42.8° (Epoch: 24 November)

Date Brightness Start Highest point End Pass type
(mag) Time Alt. Az. Time Alt. Az. Time Alt. Az.
24 Nov 2.2 17:42:07 10° SSW 17:44:17 23° SSE 17:45:29 17° ESE visible
25 Nov 0.9 17:48:05 10° SW 17:50:37 51° SSE 17:51:44 27° E visible
26 Nov 0.5 17:54:18 10° WSW 17:56:53 75° NNW 17:57:47 35° ENE visible
27 Nov 1.3 18:00:37 10° W 18:03:07 42° NNW 18:03:41 35° NNE visible
28 Nov 1.8 18:06:53 10° WNW 18:09:14 30° N 18:09:25 29° N visible
29 Nov 2.2 18:13:01 10° WNW 18:15:01 25° NNW 18:15:01 25° NNW visible
30 Nov 2.5 18:18:56 10° WNW 18:20:29 22° NNW 18:20:29 22° NNW visible
01 Dec 2.7 18:24:37 10° NW 18:25:52 21° NW 18:25:52 21° NW visible
02 Dec 2.8 18:30:03 10° WNW 18:31:11 21° NW 18:31:11 21° NW visible
03 Dec 2.9 18:35:22 10° WNW 18:36:27 22° WNW 18:36:27 22° WNW visible
